Flag for Saudi Arabia Weather past 2 weeks in Makkah, Saudi Arabia

Now
90 °F

Sunny.


Feels Like: 96 °F
Forecast: 75 / 107 °F
Wind: 12 mph from Northwest

Location: Jeddah King Abdul Aziz International Airport

Current Time: May 24, 2015 at 10:58:14 AM

Latest Report: May 24, 2015 at 10:00 AM


Visibility: 10 mi

Pressure: 29.74 "Hg

Humidity: 55%

Dew point: 72 °F

Location of MakkahLocation

Historic Weather in Makkah — Graph

°F

Makkah temperature yesterday

Maximum temperature yesterday: 95 °F (at 2:00 PM)
Minimum temperature yesterday: 81 °F (at 4:00 AM)
Average temperature yesterday: 87 °F

Past Weeks' High & Low Weather Summary

 TemperatureHumidityPressure
High106 °F (May 12, 11:00 AM)84% (May 17, 4:00 AM)29.86 "Hg (May 17, 4:00 AM)
Low77 °F (May 17, 6:00 AM)9% (May 12, 11:00 AM)29.65 "Hg (May 10, 4:00 PM)
Average89 °F45%29.73 "Hg
* Reported May 9 9:00 AM — May 24 9:00 AM, Makkah, Weather by CustomWeather, © 2015

Note: Actual official high and low records may vary slightly from our data, if they occured in-between our weather recording intervals... More about our weather records

Advertising

Makkah weather history for previous 24 hours

 ConditionsComfort  
Time TempWeatherWind HumidityBarometerVisibility
9:00 AM
Sun, May 24
86 °FSunny.7 mph59%29.77 "Hg10 mi
8:00 AM82 °FSunny.No wind66%29.74 "Hg10 mi
7:00 AM82 °FPassing clouds.5 mph74%29.71 "Hg6 mi
6:00 AM81 °FPassing clouds.6 mph74%29.71 "Hg5 mi
5:00 AM81 °FClear.7 mph74%29.68 "Hg10 mi
4:00 AM81 °FClear.7 mph74%29.68 "Hg10 mi
3:00 AM82 °FClear.8 mph70%29.68 "Hg10 mi
2:00 AM82 °FClear.8 mph66%29.68 "Hg10 mi
1:00 AM82 °FClear.6 mph66%29.71 "Hg10 mi
12:00 AM84 °FClear.7 mph58%29.74 "Hg10 mi
11:00 PM
Sat, May 23
86 °FClear.6 mph52%29.74 "Hg10 mi
10:00 PM86 °FClear.6 mph59%29.71 "Hg10 mi
9:00 PM86 °FClear.9 mph59%29.71 "Hg10 mi
8:00 PM86 °FClear.10 mph59%29.71 "Hg10 mi
7:00 PM86 °FClear.10 mph59%29.71 "Hg10 mi
6:00 PM88 °FSunny.13 mph55%29.68 "Hg10 mi
5:00 PM90 °FSunny.12 mph52%29.68 "Hg10 mi
4:00 PM90 °FSunny.14 mph52%29.68 "Hg10 mi
3:00 PM93 °FSunny.15 mph44%29.68 "Hg10 mi
2:00 PM95 °FSunny.21 mph41%29.71 "Hg10 mi
1:00 PM93 °FSunny.23 mph44%29.71 "Hg10 mi
12:00 PM91 °FPassing clouds.21 mph46%29.74 "HgN/A
11:00 AM91 °FPassing clouds.16 mph44%29.74 "HgN/A
10:00 AM91 °FPassing clouds.12 mph44%29.74 "HgN/A
Weather by CustomWeather, © 2015

See weather overviewHow to use our weather pages